Weather History for KSLK - January, 2012

Change the Weather History Date:

Sunday, January 8, 2012

  Actual Average Record
Temperature  
Mean Temperature 15 °F 14 °F  
Max Temperature 30 °F 25 °F 55 °F (2008)
Min Temperature 0 °F 2 °F -34 °F (1968)
Degree Days  
Heating Degree Days 50 51  
Month to date heating degree days 380 408  
Since 1 July heating degree days 3422 4107  
Cooling Degree Days 0 0  
Month to date cooling degree days 0  
Year to date cooling degree days 0  
Moisture  
Dew Point 12 °F    
Average Humidity 83    
Maximum Humidity 92    
Minimum Humidity 74    
Precipitation  
Precipitation T in 0.07 in 0.80 in (1951)
Month to date precipitation 0.30 0.59  
Year to date precipitation 0.30 0.59  
Sea Level Pressure  
Sea Level Pressure 30.11 in    
Wind  
Wind Speed 4 mph (West)    
Max Wind Speed 12 mph    
Max Gust Speed 17 mph    
Visibility 7 miles    
Events Snow    
T = Trace of Precipitation, MM = Missing Value Source: NWS Daily Summary

Daily Weather History Graph

Daily Weather History Graph

Search for Another Location

Airport or City:

Trip Planner

Search our weather history database for the weather conditions in past years. The results will help you decide how hot, cold, wet, or windy it might be!

Date:

Astronomy

Jan. 08, 2012 Rise Set
Actual Time 7:32 AM EST 4:34 PM EST
Civil Twilight 6:59 AM EST 5:07 PM EST
Nautical Twilight 6:23 AM EST 5:43 PM EST
Astronomical Twilight 5:48 AM EST 6:18 PM EST
Moon 4:15 PM EST (1/8) 6:48 AM EST (1/8)
Length of Visible Light 10h 07m
Length of Day
9h 02m
Full, 100% of the Moon is Illuminated
Jan 8
Full
Jan 9
Full
Jan 16
Last Quarter
Jan 23
New
Jan 30
First Quarter

Hourly Weather History & Observations

Time (EST) Temp. Windchill Dew Point Humidity Pressure Visibility Wind Dir Wind Speed Gust Speed Precip Events Conditions
12:17 AM 30.2 °F 21.9 °F 23.0 °F 75% 29.86 in 10.0 mi West 9.2 mph - N/A   Overcast
12:33 AM 28.4 °F 19.7 °F 23.0 °F 80% 29.87 in 10.0 mi WSW 9.2 mph - N/A   Overcast
12:51 AM 28.9 °F 20.4 °F 23.0 °F 78% 29.92 in 10.0 mi WSW 9.2 mph 17.3 mph N/A   Overcast
1:41 AM 28.4 °F 20.4 °F 21.2 °F 74% 29.89 in 10.0 mi WSW 8.1 mph - N/A   Overcast
1:51 AM 28.9 °F 23.9 °F 21.9 °F 75% 29.94 in 10.0 mi Variable 4.6 mph - N/A   Overcast
2:27 AM 26.6 °F 19.1 °F 23.0 °F 86% 29.91 in 6.0 mi Variable 6.9 mph - N/A   Overcast
2:51 AM 24.1 °F 19.7 °F 21.9 °F 91% 29.98 in 6.0 mi Variable 3.5 mph - N/A   Overcast
3:51 AM 21.9 °F 14.5 °F 19.0 °F 89% 29.99 in 5.0 mi NW 5.8 mph - N/A   Overcast
4:30 AM 21.2 °F 12.6 °F 17.6 °F 86% 29.96 in 7.0 mi Variable 6.9 mph - N/A   Overcast
4:51 AM 19.9 °F 13.4 °F 17.1 °F 89% 30.03 in 4.0 mi Variable 4.6 mph - 0.00 in Snow Light Snow
5:51 AM 19.9 °F 14.9 °F 16.0 °F 85% 30.05 in 10.0 mi Variable 3.5 mph - 0.00 in   Overcast
6:21 AM 19.4 °F 14.3 °F 15.8 °F 86% 30.01 in 8.0 mi Variable 3.5 mph - N/A   Overcast
6:51 AM 18.0 °F 12.7 °F 14.0 °F 84% 30.10 in 10.0 mi Variable 3.5 mph - N/A   Overcast
7:08 AM 17.6 °F 10.7 °F 14.0 °F 86% 30.03 in 9.0 mi West 4.6 mph - N/A   Overcast
7:51 AM 18.0 °F 9.8 °F 12.9 °F 81% 30.12 in 3.0 mi Variable 5.8 mph - 0.00 in Snow Light Snow
8:46 AM 17.6 °F 12.3 °F 12.2 °F 79% 30.06 in 1.8 mi West 3.5 mph - 0.00 in Snow Light Snow
8:51 AM 18.0 °F - 12.9 °F 81% 30.14 in 1.5 mi Calm Calm - 0.00 in Snow Light Snow
9:12 AM 17.6 °F 10.7 °F 12.2 °F 79% 30.08 in 2.5 mi WNW 4.6 mph - 0.00 in Snow Light Snow
9:24 AM 17.6 °F - 12.2 °F 79% 30.08 in 1.2 mi Calm Calm - 0.00 in Snow Light Snow
9:51 AM 18.0 °F 11.1 °F 12.9 °F 81% 30.16 in 1.5 mi Variable 4.6 mph - 0.00 in Snow Light Snow
10:03 AM 19.4 °F 10.4 °F 12.2 °F 74% 30.09 in 3.0 mi WNW 6.9 mph - 0.00 in Snow Light Snow
10:51 AM 19.0 °F 8.2 °F 10.9 °F 71% 30.17 in 8.0 mi West 9.2 mph - 0.00 in Snow Light Snow
11:06 AM 19.4 °F 11.5 °F 12.2 °F 74% 30.10 in 2.5 mi West 5.8 mph - 0.00 in Snow Light Snow
11:24 AM 17.6 °F 5.7 °F 12.2 °F 79% 30.10 in 1.8 mi WSW 10.4 mph 16.1 mph 0.00 in Snow Light Snow
11:39 AM 17.6 °F 7.3 °F 12.2 °F 79% 30.10 in 2.0 mi WSW 8.1 mph - 0.00 in Snow Light Snow
11:51 AM 18.0 °F 8.7 °F 12.0 °F 78% 30.17 in 2.0 mi Variable 6.9 mph - 0.00 in Snow Light Snow
12:17 PM 17.6 °F 7.3 °F 10.4 °F 73% 30.10 in 4.0 mi West 8.1 mph - 0.00 in Snow Light Snow
12:51 PM 18.0 °F 6.9 °F 10.9 °F 74% 30.17 in 5.0 mi West 9.2 mph - 0.00 in   Haze
1:48 PM 17.6 °F 12.3 °F 10.4 °F 73% 30.12 in 5.0 mi Variable 3.5 mph - 0.00 in   Haze
1:51 PM 18.0 °F - 10.9 °F 74% 30.20 in 5.0 mi Calm Calm - 0.00 in   Haze
2:51 PM 17.1 °F 5.8 °F 10.9 °F 77% 30.22 in 6.0 mi WSW 9.2 mph - N/A   Haze
3:51 PM 16.0 °F 8.8 °F 10.0 °F 77% 30.24 in 10.0 mi West 4.6 mph - N/A   Overcast
4:16 PM 15.8 °F 8.6 °F 8.6 °F 73% 30.16 in 10.0 mi West 4.6 mph - N/A   Scattered Clouds
4:51 PM 14.0 °F - 9.0 °F 80% 30.27 in 10.0 mi Calm Calm - N/A   Clear
5:51 PM 9.0 °F - 7.0 °F 92% 30.30 in 10.0 mi Calm Calm - N/A   Clear
6:51 PM 8.1 °F - 3.9 °F 83% 30.30 in 10.0 mi Calm Calm - N/A   Clear
7:51 PM 3.9 °F - 1.0 °F 88% 30.32 in 10.0 mi Calm Calm - N/A   Mostly Cloudy
8:51 PM 1.9 °F - -2.0 °F 83% 30.32 in 10.0 mi Calm Calm - N/A   Clear
9:51 PM 1.0 °F -6.7 °F -2.0 °F 87% 30.32 in 10.0 mi SSW 3.5 mph - N/A   Clear
10:51 PM 1.0 °F - -2.9 °F 83% 30.30 in 10.0 mi Calm Calm - N/A   Overcast
11:51 PM 5.0 °F - 1.0 °F 84% 30.28 in 10.0 mi Calm Calm - N/A   Overcast